Location: Meanaryar
(48.4161°N, 4.7315°W)
Time: 08:51:53
(UTC+00:00)

Cosmos 1092 Rocket - Pass Details

Date: 19 January 2021
Orbit: 954 x 995 km, 83.0° (Epoch: 02 March)

Event Time Altitude Azimuth Distance (km) Brightness Sun altitude
Rises 06:23:44 0° 351° (N) 3,645 6.8 -16.0°
Reaches altitude 10° 06:26:14 10° 352° (N) 2,695 6.1 -15.6°
Maximum altitude 06:32:25 83° 81° (E) 970 4.0 -14.6°
Drops below altitude 10° 06:38:34 10° 170° (S) 2,687 6.6 -13.6°
Sets 06:41:04 0° 171° (S) 3,633 7.3 -13.2°
